RED64 YMML-YMMB

Flight info

Callsign RED64
Flight time 0h 13m
Altitude 5000
Route DCT
Aircraft C172/L-SFG/C

Departure

Time 2026-04-26 10:31
Airport Melbourne Airport (YMML)

Arrival

Time 2026-04-26 10:44
Airport Melbourne Moorabbin Airport (YMMB)
Time Latitude Longitude Altitude Speed Heading
2026-04-26 10:07 -37.66561 144.84698 400 ft 0 kts 332°
2026-04-26 10:13 -37.66563 144.84699 400 ft 3 kts 332°
2026-04-26 10:13 -37.66579 144.84711 399 ft 3 kts 332°
2026-04-26 10:13 -37.66595 144.84722 398 ft 3 kts 332°
2026-04-26 10:13 -37.66597 144.84730 398 ft 0 kts 186°
2026-04-26 10:18 -37.66599 144.84729 398 ft 1 kts 184°
2026-04-26 10:18 -37.66625 144.84750 397 ft 6 kts 161°
2026-04-26 10:18 -37.66606 144.84790 398 ft 7 kts 34°
2026-04-26 10:18 -37.66589 144.84801 399 ft 0 kts 18°
2026-04-26 10:21 -37.66573 144.84804 400 ft 6 kts
2026-04-26 10:21 -37.66516 144.84790 402 ft 11 kts 343°
2026-04-26 10:21 -37.66475 144.84734 404 ft 14 kts 265°
2026-04-26 10:21 -37.66493 144.84582 401 ft 13 kts 259°
2026-04-26 10:22 -37.66509 144.84454 400 ft 17 kts 261°
2026-04-26 10:22 -37.66525 144.84319 399 ft 15 kts 263°
2026-04-26 10:22 -37.66522 144.84211 400 ft 9 kts 310°
2026-04-26 10:22 -37.66494 144.84159 401 ft 5 kts 319°
2026-04-26 10:23 -37.66485 144.84151 402 ft 0 kts 328°
2026-04-26 10:23 -37.66473 144.84143 403 ft 1 kts 331°
2026-04-26 10:23 -37.66425 144.84126 404 ft 14 kts 352°
2026-04-26 10:23 -37.66333 144.84108 407 ft 15 kts 349°
2026-04-26 10:24 -37.66221 144.84056 409 ft 7 kts 321°
2026-04-26 10:24 -37.66219 144.84053 409 ft 0 kts 321°
2026-04-26 10:25 -37.66218 144.84052 409 ft 1 kts 335°
2026-04-26 10:26 -37.66179 144.84070 409 ft 11 kts 15°
2026-04-26 10:26 -37.66104 144.84063 409 ft 11 kts 350°
2026-04-26 10:26 -37.66043 144.84054 410 ft 9 kts 354°
2026-04-26 10:26 -37.65959 144.84036 414 ft 12 kts
2026-04-26 10:27 -37.65864 144.84021 416 ft 18 kts 352°
2026-04-26 10:27 -37.65747 144.83999 418 ft 15 kts 353°
2026-04-26 10:27 -37.65613 144.83961 415 ft 22 kts 324°
2026-04-26 10:27 -37.65573 144.83780 423 ft 25 kts 261°
2026-04-26 10:28 -37.65588 144.83652 425 ft 0 kts 260°
2026-04-26 10:28 -37.65592 144.83622 425 ft 7 kts 261°
2026-04-26 10:29 -37.65622 144.83551 422 ft 11 kts 187°
2026-04-26 10:29 -37.65682 144.83560 421 ft 24 kts 171°
2026-04-26 10:29 -37.66017 144.83621 414 ft 71 kts 173°
2026-04-26 10:29 -37.66578 144.83729 479 ft 91 kts 172°
2026-04-26 10:30 -37.67239 144.83860 604 ft 99 kts 172°
2026-04-26 10:30 -37.67814 144.83951 639 ft 68 kts 172°
2026-04-26 10:30 -37.68343 144.84064 576 ft 91 kts 171°
2026-04-26 10:30 -37.68976 144.84202 771 ft 96 kts 173°
2026-04-26 10:31 -37.69631 144.84345 1017 ft 94 kts 172°
2026-04-26 10:31 -37.70251 144.84560 1266 ft 94 kts 148°
2026-04-26 10:31 -37.70567 144.85295 1434 ft 100 kts 98°
2026-04-26 10:31 -37.70600 144.86144 1685 ft 96 kts 84°
2026-04-26 10:32 -37.70427 144.86988 1844 ft 98 kts 70°
2026-04-26 10:32 -37.70200 144.87786 2029 ft 97 kts 65°
2026-04-26 10:32 -37.70009 144.88640 2174 ft 104 kts 94°
2026-04-26 10:32 -37.70443 144.89342 2328 ft 112 kts 150°
2026-04-26 10:33 -37.71169 144.89730 2436 ft 116 kts 158°
2026-04-26 10:33 -37.71925 144.90085 2595 ft 115 kts 164°
2026-04-26 10:33 -37.72656 144.90387 2843 ft 106 kts 163°
2026-04-26 10:33 -37.73366 144.90624 3016 ft 107 kts 168°
2026-04-26 10:34 -37.74095 144.90863 3154 ft 110 kts 168°
2026-04-26 10:34 -37.74854 144.91090 3290 ft 112 kts 167°
2026-04-26 10:34 -37.75616 144.91326 3411 ft 114 kts 169°
2026-04-26 10:34 -37.76397 144.91542 3548 ft 115 kts 169°
2026-04-26 10:35 -37.77189 144.91773 3671 ft 117 kts 167°
2026-04-26 10:35 -37.77983 144.92017 3819 ft 117 kts 168°
2026-04-26 10:35 -37.78768 144.92309 3965 ft 116 kts 165°
2026-04-26 10:35 -37.79555 144.92610 4040 ft 122 kts 165°
2026-04-26 10:36 -37.80339 144.92901 4058 ft 112 kts 167°
2026-04-26 10:36 -37.81092 144.93159 4095 ft 110 kts 168°
2026-04-26 10:36 -37.81885 144.93428 4106 ft 124 kts 167°
2026-04-26 10:36 -37.82716 144.93705 4198 ft 125 kts 167°
2026-04-26 10:37 -37.83565 144.94018 4209 ft 132 kts 165°
2026-04-26 10:37 -37.84443 144.94381 4248 ft 132 kts 163°
2026-04-26 10:37 -37.85307 144.94762 4346 ft 129 kts 161°
2026-04-26 10:37 -37.86154 144.95167 4375 ft 131 kts 160°
2026-04-26 10:38 -37.86998 144.95612 4443 ft 130 kts 157°
2026-04-26 10:38 -37.87803 144.96137 4459 ft 132 kts 149°
2026-04-26 10:38 -37.88589 144.96831 4384 ft 138 kts 143°
2026-04-26 10:38 -37.89361 144.97578 4338 ft 141 kts 140°
2026-04-26 10:39 -37.90091 144.98433 4146 ft 142 kts 133°
2026-04-26 10:39 -37.90715 144.99377 3837 ft 135 kts 126°
2026-04-26 10:39 -37.91192 145.00208 3694 ft 102 kts 120°
2026-04-26 10:39 -37.91540 145.00944 3464 ft 95 kts 113°
2026-04-26 10:40 -37.91832 145.01660 3280 ft 89 kts 108°
2026-04-26 10:40 -37.92097 145.02338 3151 ft 86 kts 110°
2026-04-26 10:40 -37.92387 145.03014 3023 ft 89 kts 116°
2026-04-26 10:40 -37.92704 145.03696 2883 ft 92 kts 113°
2026-04-26 10:41 -37.93014 145.04384 2620 ft 86 kts 116°
2026-04-26 10:41 -37.93328 145.05024 2355 ft 86 kts 120°
2026-04-26 10:41 -37.93685 145.05680 1984 ft 93 kts 126°
2026-04-26 10:41 -37.93939 145.06099 1763 ft 86 kts 125°
2026-04-26 10:42 -37.94436 145.06834 1408 ft 76 kts 135°
2026-04-26 10:42 -37.94685 145.07133 1267 ft 72 kts 139°
2026-04-26 10:42 -37.95062 145.07554 1039 ft 72 kts 140°
2026-04-26 10:42 -37.95424 145.07982 849 ft 71 kts 139°
2026-04-26 10:43 -37.95799 145.08415 653 ft 74 kts 142°
2026-04-26 10:43 -37.96196 145.08817 525 ft 74 kts 145°
2026-04-26 10:43 -37.96626 145.09210 361 ft 78 kts 144°
2026-04-26 10:43 -37.97036 145.09608 186 ft 73 kts 144°
2026-04-26 10:44 -37.97416 145.09981 40 ft 63 kts 144°
2026-04-26 10:44 -37.97659 145.10213 44 ft 12 kts 183°
2026-04-26 10:44 -37.97684 145.10169 45 ft 4 kts 241°
2026-04-26 10:44 -37.97687 145.10161 45 ft 0 kts 237°